Simultaneous Nadir Overpasses (SNOs) Predictions

Prediction of SNOs between GOES-16 and LANDSAT-8 Satellite Orbit:

Table of predicted SNOs for the next 14.0 days since TLE Epoch: 9/19/2025
Index Date Time (GOES-16) GOES-16 Lat,Lon LANDSAT-8 Lat,Lon Distance(km) Time Diff (sec)
1 09/19/2025 16:58:02 0.09,-104.69 -0.53,-101.79 329.56 80
2 09/20/2025 05:22:06 -0.09,-104.65 -0.60,-106.98 265.64 80
3 09/22/2025 05:07:16 -0.09,-104.66 0.06,-104.03 71.45 80
4 09/24/2025 04:55:05 -0.09,-104.67 0.67,-101.07 408.71 80
5 09/24/2025 17:16:20 0.10,-104.72 0.41,-106.23 172.15 80
6 09/26/2025 17:06:49 0.10,-104.73 -0.21,-103.28 165.09 80
7 09/27/2025 05:28:13 -0.11,-104.68 -0.91,-108.46 429.65 80
8 09/29/2025 05:16:02 -0.11,-104.69 -0.27,-105.51 92.70 80
9 10/01/2025 05:01:10 -0.12,-104.69 0.32,-102.54 244.26 80
10 10/01/2025 17:22:26 0.12,-104.74 0.75,-107.70 337.22 80
